| time (UTC) | temp C | wind direction | speed KPH | gust KPH | rain 1hr cm | rain 24hr cm | rain mn cm | humidity % | barometer mb |
| 20260906172933 | 13 | 0 | 0.0 | 0.0 | 0.00 | 0.05 | 0.00 | 77 | 1025.2 |
| 20260906172433 | 13 | 0 | 0.0 | 0.0 | 0.00 | 0.05 | 0.00 | 76 | 1025.2 |
| 20260906171934 | 14 | 0 | 0.0 | 0.0 | 0.00 | 0.05 | 0.00 | 75 | 1025.2 |
| 20260906171433 | 14 | 0 | 0.0 | 0.0 | 0.00 | 0.05 | 0.00 | 74 | 1025.1 |
| 20260906170933 | 15 | 0 | 0.0 | 0.0 | 0.00 | 0.05 | 0.00 | 73 | 1025.1 |
| 20260906170433 | 15 | 0 | 0.0 | 0.0 | 0.00 | 0.05 | 0.00 | 72 | 1025.1 |
| 20260906165933 | 15 | 0 | 0.0 | 0.0 | 0.00 | 0.05 | 0.00 | 71 | 1025.1 |
| 20260906165433 | 15 | 0 | 0.0 | 0.0 | 0.00 | 0.05 | 0.00 | 70 | 1025.1 |
| 20260906164933 | 15 | 0 | 0.0 | 0.0 | 0.00 | 0.05 | 0.00 | 69 | 1025.0 |
| 20260906163933 | 16 | 0 | 0.0 | 0.0 | 0.00 | 0.05 | 0.00 | 67 | 1024.9 |
| 20260906163435 | 16 | 0 | 0.0 | 0.0 | 0.00 | 0.05 | 0.00 | 65 | 1024.9 |
| 20260906162933 | 17 | 0 | 0.0 | 0.0 | 0.00 | 0.05 | 0.00 | 63 | 1024.9 |
| 20260906161934 | 17 | 0 | 0.0 | 0.0 | 0.00 | 0.05 | 0.00 | 62 | 1024.8 |
| 20260906160933 | 17 | 0 | 0.0 | 0.0 | 0.00 | 0.05 | 0.00 | 60 | 1024.8 |
| 20260906160433 | 17 | 0 | 0.0 | 0.0 | 0.00 | 0.05 | 0.00 | 60 | 1024.8 |
| 20260906155933 | 17 | 0 | 0.0 | 0.0 | 0.00 | 0.05 | 0.00 | 61 | 1024.9 |
| 20260906154933 | 17 | 0 | 0.0 | 0.0 | 0.00 | 0.05 | 0.00 | 60 | 1024.8 |
| 20260906154433 | 17 | 0 | 0.0 | 0.0 | 0.00 | 0.05 | 0.00 | 59 | 1024.7 |
| 20260906153934 | 17 | 0 | 0.0 | 0.0 | 0.00 | 0.05 | 0.00 | 61 | 1024.8 |
| 20260906152934 | 17 | 0 | 0.0 | 0.0 | 0.00 | 0.05 | 0.00 | 62 | 1024.7 |
| 20260906151933 | 18 | 0 | 0.0 | 0.0 | 0.00 | 0.05 | 0.00 | 61 | 1024.7 |
| 20260906151433 | 18 | 0 | 0.0 | 0.0 | 0.00 | 0.05 | 0.00 | 60 | 1024.7 |
| 20260906150933 | 18 | 0 | 0.0 | 0.0 | 0.00 | 0.05 | 0.00 | 58 | 1024.5 |
| 20260906150434 | 18 | 0 | 0.0 | 0.0 | 0.00 | 0.05 | 0.00 | 58 | 1024.5 |
| 20260906145934 | 18 | 0 | 0.0 | 0.0 | 0.00 | 0.05 | 0.00 | 59 | 1024.5 |
| 20260906145434 | 18 | 0 | 0.0 | 0.0 | 0.00 | 0.05 | 0.00 | 60 | 1024.4 |
| 20260906144934 | 19 | 0 | 0.0 | 0.0 | 0.00 | 0.05 | 0.00 | 60 | 1024.4 |
| 20260906144433 | 19 | 0 | 0.0 | 0.0 | 0.00 | 0.05 | 0.00 | 58 | 1024.3 |
| 20260906143933 | 19 | 0 | 0.0 | 0.0 | 0.00 | 0.05 | 0.00 | 57 | 1024.3 |
| 20260906143434 | 19 | 0 | 0.0 | 0.0 | 0.00 | 0.05 | 0.00 | 57 | 1024.3 |
| 20260906141933 | 19 | 0 | 0.0 | 0.0 | 0.00 | 0.05 | 0.00 | 57 | 1024.4 |
| 20260906141434 | 20 | 0 | 0.0 | 0.0 | 0.00 | 0.05 | 0.00 | 55 | 1024.4 |
| 20260906140934 | 19 | 0 | 0.0 | 0.0 | 0.00 | 0.05 | 0.00 | 61 | 1024.4 |
| 20260906140434 | 18 | 0 | 0.0 | 0.0 | 0.00 | 0.05 | 0.00 | 62 | 1024.4 |
| 20260906135933 | 18 | 0 | 0.0 | 0.0 | 0.00 | 0.05 | 0.00 | 62 | 1024.3 |
| 20260906135433 | 18 | 0 | 0.0 | 0.0 | 0.00 | 0.05 | 0.00 | 60 | 1024.3 |
| 20260906134933 | 18 | 0 | 0.0 | 0.0 | 0.00 | 0.05 | 0.00 | 62 | 1024.3 |
| 20260906134434 | 17 | 0 | 0.0 | 0.0 | 0.00 | 0.05 | 0.00 | 61 | 1024.4 |
| 20260906133934 | 18 | 0 | 0.0 | 0.0 | 0.00 | 0.05 | 0.00 | 62 | 1024.4 |
| 20260906133434 | 18 | 0 | 0.0 | 0.0 | 0.00 | 0.05 | 0.00 | 60 | 1024.3 |
| 20260906132434 | 19 | 0 | 0.0 | 0.0 | 0.00 | 0.05 | 0.00 | 58 | 1024.2 |
| 20260906131934 | 20 | 0 | 0.0 | 0.0 | 0.00 | 0.05 | 0.00 | 55 | 1024.0 |
| 20260906131435 | 20 | 0 | 0.0 | 0.0 | 0.00 | 0.05 | 0.00 | 57 | 1024.0 |
| 20260906130934 | 20 | 0 | 0.0 | 0.0 | 0.00 | 0.05 | 0.00 | 58 | 1024.0 |
| 20260906130434 | 20 | 0 | 0.0 | 0.0 | 0.00 | 0.05 | 0.00 | 58 | 1024.1 |
| 20260906125934 | 20 | 0 | 0.0 | 0.0 | 0.00 | 0.05 | 0.00 | 59 | 1024.1 |
| 20260906125434 | 20 | 0 | 0.0 | 0.0 | 0.00 | 0.05 | 0.00 | 59 | 1024.1 |
| 20260906124934 | 19 | 0 | 0.0 | 0.0 | 0.00 | 0.05 | 0.00 | 60 | 1024.1 |
| 20260906124434 | 18 | 0 | 0.0 | 0.0 | 0.00 | 0.05 | 0.00 | 61 | 1024.0 |
| 20260906123434 | 20 | 0 | 0.0 | 0.0 | 0.00 | 0.05 | 0.00 | 58 | 1024.0 |
| 20260906122934 | 20 | 0 | 0.0 | 0.0 | 0.00 | 0.05 | 0.00 | 61 | 1023.9 |
| 20260906122435 | 19 | 0 | 0.0 | 0.0 | 0.00 | 0.05 | 0.00 | 60 | 1024.0 |
| 20260906121934 | 18 | 0 | 0.0 | 0.0 | 0.00 | 0.05 | 0.00 | 62 | 1023.9 |
| 20260906120934 | 19 | 0 | 0.0 | 0.0 | 0.00 | 0.05 | 0.00 | 61 | 1023.9 |
| 20260906120434 | 19 | 0 | 0.0 | 0.0 | 0.00 | 0.05 | 0.00 | 64 | 1023.9 |
| 20260906115934 | 18 | 0 | 0.0 | 0.0 | 0.00 | 0.05 | 0.00 | 63 | 1023.9 |
| 20260906115434 | 18 | 0 | 0.0 | 0.0 | 0.00 | 0.05 | 0.00 | 63 | 1024.0 |
| 20260906114934 | 19 | 0 | 0.0 | 0.0 | 0.00 | 0.05 | 0.00 | 61 | 1024.0 |
| 20260906113934 | 20 | 0 | 0.0 | 0.0 | 0.00 | 0.05 | 0.00 | 61 | 1023.9 |
| 20260906112935 | 19 | 0 | 0.0 | 0.0 | 0.00 | 0.05 | 0.00 | 64 | 1023.9 |
| 20260906112435 | 18 | 0 | 0.0 | 0.0 | 0.00 | 0.05 | 0.00 | 67 | 1023.9 |
| 20260906111434 | 17 | 0 | 0.0 | 0.0 | 0.00 | 0.05 | 0.00 | 65 | 1023.9 |
| 20260906110934 | 17 | 0 | 0.0 | 0.0 | 0.00 | 0.05 | 0.00 | 67 | 1023.9 |
| 20260906110434 | 17 | 0 | 0.0 | 0.0 | 0.00 | 0.05 | 0.00 | 64 | 1023.9 |
| 20260906105935 | 18 | 0 | 0.0 | 0.0 | 0.00 | 0.05 | 0.00 | 64 | 1023.9 |
| 20260906105435 | 19 | 0 | 0.0 | 0.0 | 0.00 | 0.05 | 0.00 | 64 | 1023.9 |
| 20260906104934 | 18 | 0 | 0.0 | 0.0 | 0.00 | 0.05 | 0.00 | 64 | 1023.9 |
| 20260906103934 | 18 | 0 | 0.0 | 0.0 | 0.00 | 0.05 | 0.00 | 66 | 1023.8 |
| 20260906103435 | 18 | 0 | 0.0 | 0.0 | 0.00 | 0.05 | 0.00 | 66 | 1023.9 |
| 20260906102935 | 17 | 0 | 0.0 | 0.0 | 0.00 | 0.05 | 0.00 | 70 | 1023.9 |
| 20260906102435 | 17 | 0 | 0.0 | 0.0 | 0.00 | 0.05 | 0.00 | 68 | 1023.8 |
| 20260906101934 | 17 | 0 | 0.0 | 0.0 | 0.00 | 0.05 | 0.00 | 68 | 1023.8 |
| 20260906101435 | 18 | 0 | 0.0 | 0.0 | 0.00 | 0.05 | 0.00 | 66 | 1023.6 |
| 20260906100934 | 19 | 0 | 0.0 | 0.0 | 0.00 | 0.05 | 0.00 | 66 | 1023.6 |
| 20260906100435 | 18 | 0 | 0.0 | 0.0 | 0.00 | 0.05 | 0.00 | 68 | 1023.6 |
| 20260906095935 | 17 | 0 | 0.0 | 0.0 | 0.00 | 0.05 | 0.00 | 74 | 1023.7 |
| 20260906095434 | 16 | 0 | 0.0 | 0.0 | 0.00 | 0.05 | 0.00 | 72 | 1023.7 |
| 20260906094434 | 16 | 0 | 0.0 | 0.0 | 0.00 | 0.05 | 0.00 | 70 | 1023.5 |
| 20260906093934 | 16 | 0 | 0.0 | 0.0 | 0.00 | 0.05 | 0.00 | 72 | 1023.6 |
| 20260906093434 | 16 | 0 | 0.0 | 0.0 | 0.00 | 0.05 | 0.00 | 71 | 1023.5 |
| 20260906092935 | 17 | 0 | 0.0 | 0.0 | 0.00 | 0.05 | 0.00 | 69 | 1023.5 |
| 20260906092435 | 17 | 0 | 0.0 | 0.0 | 0.00 | 0.05 | 0.00 | 70 | 1023.4 |
| 20260906091934 | 17 | 0 | 0.0 | 0.0 | 0.00 | 0.05 | 0.00 | 68 | 1023.5 |
| 20260906091434 | 18 | 0 | 0.0 | 0.0 | 0.00 | 0.05 | 0.00 | 69 | 1023.5 |
| 20260906090934 | 17 | 0 | 0.0 | 0.0 | 0.00 | 0.05 | 0.00 | 71 | 1023.5 |
| 20260906090434 | 17 | 0 | 0.0 | 0.0 | 0.00 | 0.05 | 0.00 | 71 | 1023.6 |
| 20260906085934 | 17 | 0 | 0.0 | 0.0 | 0.00 | 0.05 | 0.00 | 70 | 1023.5 |
| 20260906084935 | 17 | 0 | 0.0 | 0.0 | 0.00 | 0.05 | 0.00 | 71 | 1023.5 |
| 20260906083935 | 16 | 0 | 0.0 | 0.0 | 0.00 | 0.05 | 0.00 | 74 | 1023.5 |
| 20260906083435 | 16 | 0 | 0.0 | 0.0 | 0.00 | 0.05 | 0.00 | 75 | 1023.4 |
| 20260906082935 | 15 | 0 | 0.0 | 0.0 | 0.00 | 0.05 | 0.00 | 76 | 1023.5 |
| 20260906082435 | 15 | 0 | 0.0 | 0.0 | 0.00 | 0.05 | 0.00 | 77 | 1023.5 |
| 20260906081934 | 15 | 0 | 0.0 | 0.0 | 0.00 | 0.05 | 0.00 | 77 | 1023.4 |
| 20260906080435 | 15 | 0 | 0.0 | 0.0 | 0.00 | 0.05 | 0.00 | 77 | 1023.2 |
| 20260906075935 | 15 | 0 | 0.0 | 0.0 | 0.00 | 0.05 | 0.00 | 77 | 1023.1 |
| 20260906075435 | 15 | 0 | 0.0 | 0.0 | 0.00 | 0.05 | 0.00 | 77 | 1023.0 |
| 20260906074935 | 15 | 0 | 0.0 | 0.0 | 0.00 | 0.05 | 0.00 | 76 | 1022.9 |
| 20260906074435 | 15 | 0 | 0.0 | 0.0 | 0.00 | 0.05 | 0.00 | 76 | 1022.9 |
| 20260906073936 | 15 | 0 | 0.0 | 0.0 | 0.00 | 0.05 | 0.00 | 76 | 1022.8 |
| 20260906072935 | 15 | 0 | 0.0 | 0.0 | 0.00 | 0.05 | 0.00 | 75 | 1022.8 |
| 20260906072435 | 15 | 0 | 0.0 | 0.0 | 0.00 | 0.05 | 0.00 | 75 | 1022.7 |
| 20260906071435 | 15 | 0 | 0.0 | 0.0 | 0.00 | 0.05 | 0.00 | 75 | 1022.6 |
| 20260906070935 | 15 | 0 | 0.0 | 0.0 | 0.00 | 0.05 | 0.00 | 76 | 1022.7 |
| 20260906070435 | 15 | 0 | 0.0 | 0.0 | 0.00 | 0.05 | 0.00 | 76 | 1022.6 |
| 20260906064936 | 15 | 0 | 0.0 | 0.0 | 0.00 | 0.05 | 0.00 | 78 | 1022.3 |
| 20260906064435 | 14 | 0 | 0.0 | 0.0 | 0.00 | 0.05 | 0.00 | 78 | 1022.3 |
| 20260906063935 | 14 | 0 | 0.0 | 0.0 | 0.00 | 0.05 | 0.00 | 81 | 1022.2 |
| 20260906063435 | 14 | 0 | 0.0 | 0.0 | 0.00 | 0.05 | 0.00 | 81 | 1022.1 |
| 20260906062936 | 14 | 0 | 0.0 | 0.0 | 0.00 | 0.05 | 0.00 | 82 | 1022.1 |
| 20260906062435 | 13 | 0 | 0.0 | 0.0 | 0.00 | 0.05 | 0.00 | 82 | 1021.9 |
| 20260906061935 | 13 | 0 | 0.0 | 0.0 | 0.00 | 0.05 | 0.00 | 82 | 1021.9 |
| 20260906061435 | 13 | 0 | 0.0 | 0.0 | 0.00 | 0.05 | 0.00 | 83 | 1021.9 |
| 20260906060435 | 13 | 0 | 0.0 | 0.0 | 0.00 | 0.05 | 0.00 | 84 | 1021.7 |
| 20260906055936 | 13 | 0 | 0.0 | 0.0 | 0.00 | 0.05 | 0.00 | 85 | 1021.8 |
| 20260906055436 | 13 | 0 | 0.0 | 0.0 | 0.00 | 0.05 | 0.00 | 85 | 1021.7 |
| 20260906054935 | 13 | 0 | 0.0 | 0.0 | 0.00 | 0.05 | 0.00 | 86 | 1021.7 |
| 20260906054435 | 13 | 0 | 0.0 | 0.0 | 0.00 | 0.05 | 0.00 | 86 | 1021.6 |
| 20260906053935 | 13 | 0 | 0.0 | 0.0 | 0.00 | 0.05 | 0.00 | 87 | 1021.6 |
| 20260906053436 | 12 | 0 | 0.0 | 0.0 | 0.00 | 0.05 | 0.00 | 87 | 1021.5 |
| 20260906052936 | 12 | 0 | 0.0 | 0.0 | 0.00 | 0.05 | 0.00 | 88 | 1021.5 |
| 20260906052437 | 12 | 0 | 0.0 | 0.0 | 0.00 | 0.05 | 0.00 | 88 | 1021.4 |
| 20260906051935 | 12 | 0 | 0.0 | 0.0 | 0.00 | 0.05 | 0.00 | 88 | 1021.4 |
| 20260906051436 | 12 | 0 | 0.0 | 0.0 | 0.00 | 0.05 | 0.00 | 88 | 1021.4 |
| 20260906050436 | 12 | 0 | 0.0 | 0.0 | 0.00 | 0.05 | 0.00 | 88 | 1021.2 |
| 20260906045936 | 12 | 0 | 0.0 | 0.0 | 0.00 | 0.05 | 0.00 | 88 | 1021.1 |
| 20260906045435 | 12 | 0 | 0.0 | 0.0 | 0.00 | 0.05 | 0.00 | 88 | 1021.1 |
| 20260906044435 | 12 | 0 | 0.0 | 0.0 | 0.00 | 0.08 | 0.00 | 89 | 1021.0 |
| 20260906043935 | 12 | 0 | 0.0 | 0.0 | 0.00 | 0.08 | 0.00 | 89 | 1021.0 |
| 20260906043435 | 12 | 0 | 0.0 | 0.0 | 0.00 | 0.08 | 0.00 | 89 | 1021.0 |
| 20260906042935 | 12 | 0 | 0.0 | 0.0 | 0.00 | 0.08 | 0.00 | 89 | 1020.9 |
| 20260906041936 | 12 | 0 | 0.0 | 0.0 | 0.00 | 0.08 | 0.00 | 89 | 1020.9 |
| 20260906041435 | 12 | 0 | 0.0 | 0.0 | 0.00 | 0.08 | 0.00 | 88 | 1020.8 |
| 20260906040935 | 12 | 0 | 0.0 | 0.0 | 0.00 | 0.08 | 0.00 | 88 | 1020.8 |
| 20260906040435 | 12 | 0 | 0.0 | 0.0 | 0.00 | 0.08 | 0.00 | 88 | 1020.6 |
| 20260906034936 | 12 | 0 | 0.0 | 0.0 | 0.00 | 0.08 | 0.00 | 88 | 1020.5 |
| 20260906033936 | 12 | 0 | 0.0 | 0.0 | 0.00 | 0.08 | 0.00 | 88 | 1020.4 |
| 20260906033436 | 12 | 0 | 0.0 | 0.0 | 0.00 | 0.08 | 0.00 | 88 | 1020.4 |
| 20260906032935 | 12 | 0 | 0.0 | 0.0 | 0.00 | 0.08 | 0.00 | 88 | 1020.4 |
| 20260906032436 | 12 | 0 | 0.0 | 0.0 | 0.00 | 0.08 | 0.00 | 88 | 1020.4 |
| 20260906031938 | 12 | 0 | 0.0 | 0.0 | 0.00 | 0.08 | 0.00 | 88 | 1020.4 |
| 20260906031436 | 12 | 0 | 0.0 | 0.0 | 0.00 | 0.08 | 0.00 | 88 | 1020.4 |
| 20260906030936 | 12 | 0 | 0.0 | 0.0 | 0.00 | 0.08 | 0.00 | 88 | 1020.3 |
| 20260906030437 | 12 | 0 | 0.0 | 0.0 | 0.00 | 0.08 | 0.00 | 88 | 1020.2 |
| 20260906025936 | 12 | 0 | 0.0 | 0.0 | 0.00 | 0.08 | 0.00 | 88 | 1020.2 |
| 20260906025436 | 12 | 0 | 0.0 | 0.0 | 0.00 | 0.08 | 0.00 | 88 | 1020.1 |
| 20260906024936 | 12 | 0 | 0.0 | 0.0 | 0.00 | 0.08 | 0.00 | 88 | 1020.1 |
| 20260906024436 | 12 | 0 | 0.0 | 0.0 | 0.00 | 0.08 | 0.00 | 88 | 1020.1 |
| 20260906023936 | 12 | 0 | 0.0 | 0.0 | 0.00 | 0.08 | 0.00 | 88 | 1020.1 |
| 20260906023436 | 12 | 0 | 0.0 | 0.0 | 0.00 | 0.08 | 0.00 | 88 | 1019.9 |
| 20260906022936 | 12 | 0 | 0.0 | 0.0 | 0.00 | 0.08 | 0.00 | 88 | 1020.0 |
| 20260906022436 | 12 | 0 | 0.0 | 0.0 | 0.00 | 0.08 | 0.00 | 89 | 1019.9 |
| 20260906021936 | 12 | 0 | 0.0 | 0.0 | 0.00 | 0.08 | 0.00 | 89 | 1020.0 |
| 20260906020936 | 12 | 0 | 0.0 | 0.0 | 0.00 | 0.08 | 0.00 | 89 | 1019.9 |
| 20260906015938 | 12 | 0 | 0.0 | 0.0 | 0.00 | 0.08 | 0.00 | 89 | 1019.8 |
| 20260906015436 | 12 | 0 | 0.0 | 0.0 | 0.00 | 0.08 | 0.00 | 89 | 1019.9 |
| 20260906014936 | 12 | 0 | 0.0 | 0.0 | 0.00 | 0.08 | 0.00 | 89 | 1019.8 |
| 20260906014436 | 12 | 0 | 0.0 | 0.0 | 0.00 | 0.08 | 0.00 | 89 | 1019.8 |
| 20260906013938 | 12 | 0 | 0.0 | 0.0 | 0.00 | 0.08 | 0.00 | 90 | 1019.8 |
| 20260906013436 | 12 | 0 | 0.0 | 0.0 | 0.00 | 0.08 | 0.00 | 90 | 1019.7 |
| 20260906012936 | 13 | 0 | 0.0 | 0.0 | 0.00 | 0.08 | 0.00 | 90 | 1019.6 |
| 20260906012436 | 13 | 0 | 0.0 | 0.0 | 0.00 | 0.08 | 0.00 | 90 | 1019.5 |
| 20260906011936 | 13 | 0 | 0.0 | 0.0 | 0.00 | 0.08 | 0.00 | 90 | 1019.5 |
| 20260906010937 | 13 | 0 | 0.0 | 0.0 | 0.00 | 0.08 | 0.00 | 90 | 1019.6 |
| 20260906005937 | 13 | 0 | 0.0 | 0.0 | 0.00 | 0.10 | 0.00 | 91 | 1019.5 |
| 20260906004937 | 13 | 0 | 0.0 | 0.0 | 0.00 | 0.13 | 0.00 | 91 | 1019.5 |
| 20260906004437 | 13 | 0 | 0.0 | 0.0 | 0.00 | 0.13 | 0.00 | 91 | 1019.5 |
| 20260906003937 | 13 | 0 | 0.0 | 0.0 | 0.00 | 0.13 | 0.00 | 92 | 1019.5 |
| 20260906003437 | 13 | 0 | 0.0 | 0.0 | 0.00 | 0.13 | 0.00 | 92 | 1019.5 |
| 20260906002936 | 13 | 0 | 0.0 | 0.0 | 0.00 | 0.13 | 0.00 | 93 | 1019.5 |
| 20260906002437 | 13 | 0 | 0.0 | 0.0 | 0.00 | 0.13 | 0.00 | 93 | 1019.4 |
| 20260906001936 | 13 | 0 | 0.0 | 0.0 | 0.00 | 0.13 | 0.00 | 93 | 1019.4 |
| 20260906001436 | 13 | 0 | 0.0 | 0.0 | 0.00 | 0.13 | 0.00 | 93 | 1019.4 |
| 20260906000936 | 12 | 0 | 0.0 | 0.0 | 0.00 | 0.13 | 0.00 | 93 | 1019.4 |
| 20260906000436 | 12 | 0 | 0.0 | 0.0 | 0.00 | 0.13 | 0.00 | 93 | 1019.4 |
| 20260905235937 | 12 | 0 | 0.0 | 0.0 | 0.00 | 0.13 | 0.00 | 93 | 1019.4 |
| 20260905235437 | 12 | 0 | 0.0 | 0.0 | 0.00 | 0.13 | 0.00 | 93 | 1019.4 |
| 20260905234938 | 12 | 0 | 0.0 | 0.0 | 0.00 | 0.13 | 0.00 | 93 | 1019.4 |
| 20260905234436 | 12 | 0 | 0.0 | 0.0 | 0.00 | 0.13 | 0.00 | 93 | 1019.3 |
| 20260905233936 | 12 | 0 | 0.0 | 0.0 | 0.00 | 0.13 | 0.00 | 94 | 1019.3 |
| 20260905232938 | 13 | 0 | 0.0 | 0.0 | 0.00 | 0.13 | 0.00 | 94 | 1019.4 |
| 20260905232436 | 12 | 0 | 0.0 | 0.0 | 0.00 | 0.13 | 0.00 | 94 | 1019.4 |
| 20260905231936 | 12 | 0 | 0.0 | 0.0 | 0.00 | 0.13 | 0.00 | 94 | 1019.5 |
| 20260905230937 | 12 | 0 | 0.0 | 0.0 | 0.00 | 0.13 | 0.00 | 94 | 1019.4 |
| 20260905230437 | 12 | 0 | 0.0 | 0.0 | 0.00 | 0.13 | 0.00 | 94 | 1019.3 |
| 20260905225939 | 12 | 0 | 0.0 | 0.0 | 0.00 | 0.13 | 0.00 | 94 | 1019.2 |
| 20260905224438 | 12 | 0 | 0.0 | 0.0 | 0.00 | 0.13 | 0.00 | 94 | 1019.1 |
| 20260905223937 | 12 | 0 | 0.0 | 0.0 | 0.00 | 0.13 | 0.00 | 94 | 1019.0 |
| 20260905222939 | 12 | 0 | 0.0 | 0.0 | 0.00 | 0.13 | 0.00 | 94 | 1019.0 |
| 20260905222437 | 12 | 0 | 0.0 | 0.0 | 0.00 | 0.13 | 0.00 | 94 | 1019.0 |
| 20260905221439 | 12 | 0 | 0.0 | 0.0 | 0.00 | 0.13 | 0.00 | 94 | 1018.9 |
| 20260905220937 | 12 | 0 | 0.0 | 0.0 | 0.03 | 0.13 | 0.00 | 94 | 1018.9 |
| 20260905220437 | 12 | 0 | 0.0 | 0.0 | 0.03 | 0.13 | 0.00 | 93 | 1018.9 |
| 20260905215939 | 12 | 0 | 0.0 | 0.0 | 0.03 | 0.13 | 0.00 | 93 | 1019.0 |
| 20260905215437 | 12 | 0 | 0.0 | 0.0 | 0.05 | 0.13 | 0.13 | 93 | 1019.1 |
| 20260905214936 | 12 | 0 | 0.0 | 0.0 | 0.05 | 0.13 | 0.13 | 93 | 1019.1 |
| 20260905214438 | 12 | 0 | 0.0 | 0.0 | 0.05 | 0.13 | 0.13 | 93 | 1019.0 |
| 20260905213937 | 12 | 0 | 0.0 | 0.0 | 0.05 | 0.13 | 0.13 | 93 | 1018.9 |
| 20260905213437 | 12 | 0 | 0.0 | 0.0 | 0.05 | 0.13 | 0.13 | 92 | 1018.9 |
| 20260905212937 | 12 | 0 | 0.0 | 0.0 | 0.05 | 0.13 | 0.13 | 92 | 1019.0 |
| 20260905211937 | 12 | 0 | 0.0 | 0.0 | 0.05 | 0.13 | 0.13 | 91 | 1018.9 |
| 20260905211437 | 13 | 0 | 0.0 | 0.0 | 0.05 | 0.10 | 0.10 | 91 | 1018.8 |
| 20260905210937 | 13 | 0 | 0.0 | 0.0 | 0.05 | 0.10 | 0.10 | 90 | 1018.9 |
| 20260905210437 | 13 | 0 | 0.0 | 0.0 | 0.05 | 0.10 | 0.10 | 89 | 1019.0 |
| 20260905205938 | 13 | 0 | 0.0 | 0.0 | 0.05 | 0.10 | 0.10 | 87 | 1019.1 |
| 20260905205437 | 13 | 0 | 0.0 | 0.0 | 0.03 | 0.08 | 0.08 | 86 | 1019.1 |
| 20260905204439 | 14 | 0 | 0.0 | 0.0 | 0.00 | 0.05 | 0.05 | 81 | 1019.1 |
| 20260905203937 | 14 | 0 | 0.0 | 0.0 | 0.00 | 0.05 | 0.05 | 80 | 1018.9 |
| 20260905203437 | 15 | 0 | 0.0 | 0.0 | 0.00 | 0.05 | 0.05 | 79 | 1018.8 |
| 20260905202937 | 15 | 0 | 0.0 | 0.0 | 0.00 | 0.05 | 0.05 | 77 | 1018.7 |
| 20260905202438 | 16 | 0 | 0.0 | 0.0 | 0.00 | 0.05 | 0.05 | 74 | 1018.8 |
| 20260905201937 | 16 | 0 | 0.0 | 0.0 | 0.00 | 0.05 | 0.05 | 72 | 1017.9 |
| 20260905201437 | 16 | 0 | 0.0 | 0.0 | 0.00 | 0.05 | 0.05 | 70 | 1017.5 |
| 20260905200937 | 16 | 0 | 0.0 | 0.0 | 0.00 | 0.05 | 0.05 | 70 | 1017.5 |
| 20260905200437 | 16 | 0 | 0.0 | 0.0 | 0.00 | 0.05 | 0.05 | 70 | 1017.4 |
| 20260905195938 | 16 | 0 | 0.0 | 0.0 | 0.00 | 0.05 | 0.05 | 68 | 1017.4 |
| 20260905194937 | 16 | 0 | 0.0 | 0.0 | 0.00 | 0.05 | 0.05 | 68 | 1017.4 |
| 20260905194437 | 16 | 0 | 0.0 | 0.0 | 0.00 | 0.05 | 0.05 | 70 | 1017.2 |
| 20260905192937 | 16 | 0 | 0.0 | 0.0 | 0.00 | 0.05 | 0.05 | 71 | 1017.3 |
| 20260905192438 | 16 | 0 | 0.0 | 0.0 | 0.00 | 0.05 | 0.05 | 71 | 1017.2 |
| 20260905191937 | 16 | 0 | 0.0 | 0.0 | 0.00 | 0.05 | 0.05 | 72 | 1017.2 |
| 20260905185938 | 16 | 0 | 0.0 | 0.0 | 0.00 | 0.05 | 0.05 | 74 | 1017.2 |
| 20260905185437 | 16 | 0 | 0.0 | 0.0 | 0.00 | 0.05 | 0.05 | 73 | 1017.1 |
| 20260905184937 | 16 | 0 | 0.0 | 0.0 | 0.00 | 0.05 | 0.05 | 73 | 1017.0 |
| 20260905184437 | 16 | 0 | 0.0 | 0.0 | 0.00 | 0.05 | 0.05 | 74 | 1017.0 |
| 20260905183437 | 16 | 0 | 0.0 | 0.0 | 0.00 | 0.05 | 0.05 | 72 | 1016.8 |
| 20260905180938 | 17 | 0 | 0.0 | 0.0 | 0.00 | 0.05 | 0.05 | 70 | 1016.6 |
| 20260905180438 | 17 | 0 | 0.0 | 0.0 | 0.00 | 0.05 | 0.05 | 70 | 1016.6 |
| 20260905175940 | 17 | 0 | 0.0 | 0.0 | 0.00 | 0.05 | 0.05 | 70 | 1016.6 |
| 20260905175438 | 17 | 0 | 0.0 | 0.0 | 0.00 | 0.05 | 0.05 | 70 | 1016.6 |
| 20260905174938 | 17 | 0 | 0.0 | 0.0 | 0.00 | 0.05 | 0.05 | 70 | 1016.5 |
| 20260905173938 | 17 | 0 | 0.0 | 0.0 | 0.00 | 0.05 | 0.05 | 72 | 1016.4 |